Time,TemperatureF,DewpointF,PressureIn,WindDirection,WindDirectionDegrees,WindSpeedMPH,WindSpeedGustMPH,Humidity,HourlyPrecipIn,Conditions,Clouds,dailyrainin,SoftwareType,DateUTC
2013-08-17 00:00:00,57.0,52.9,30.28,North,0,1.0,0.0,86,0.00,,CLR,-99.99,VWS V14.01,2013-08-17 04:00:00,
2013-08-17 00:01:00,57.0,52.9,30.28,North,0,1.0,0.0,86,0.00,,CLR,-99.99,VWS V14.01,2013-08-17 04:01:00,
2013-08-17 00:02:00,57.0,53.2,30.28,North,0,1.0,0.0,87,0.00,,CLR,-99.99,VWS V14.01,2013-08-17 04:02:00,
2013-08-17 00:03:00,57.0,53.2,30.28,North,0,1.0,0.0,87,0.00,,CLR,-99.99,VWS V14.01,2013-08-17 04:03:00,
2013-08-17 00:04:00,57.0,53.2,30.28,North,0,1.0,0.0,87,0.00,,CLR,-99.99,VWS V14.01,2013-08-17 04:04:00,
2013-08-17 00:05:00,56.8,53.0,30.28,North,0,1.0,0.0,87,0.00,,CLR,-99.99,VWS V14.01,2013-08-17 04:05:00,
2013-08-17 00:11:00,56.8,53.0,30.28,North,0,1.0,0.0,87,0.00,,CLR,-99.99,VWS V14.01,2013-08-17 04:11:00,
2013-08-17 00:17:00,56.4,52.6,30.28,North,0,1.0,0.0,87,0.00,,CLR,-99.99,VWS V14.01,2013-08-17 04:17:00,
2013-08-17 00:23:00,56.4,52.6,30.28,North,0,1.0,0.0,87,0.00,,CLR,-99.99,VWS V14.01,2013-08-17 04:23:00,
2013-08-17 00:29:00,56.1,52.0,30.29,North,0,1.0,0.0,86,0.00,,CLR,-99.99,VWS V14.01,2013-08-17 04:29:00,
2013-08-17 00:35:00,56.1,52.3,30.29,North,0,1.0,0.0,87,0.00,,CLR,-99.99,VWS V14.01,2013-08-17 04:35:00,
2013-08-17 00:40:00,56.1,52.3,30.29,North,0,1.0,0.0,87,0.00,,CLR,-99.99,VWS V14.01,2013-08-17 04:40:00,
2013-08-17 00:45:00,55.9,52.1,30.29,North,0,1.0,0.0,87,0.00,,CLR,-99.99,VWS V14.01,2013-08-17 04:45:00,
2013-08-17 00:50:00,55.9,52.1,30.29,North,0,1.0,0.0,87,0.00,,CLR,-99.99,VWS V14.01,2013-08-17 04:50:00,
2013-08-17 00:55:00,55.7,51.9,30.29,North,0,1.0,0.0,87,0.00,,CLR,-99.99,VWS V14.01,2013-08-17 04:55:00,
2013-08-17 01:00:00,55.7,51.9,30.29,North,0,1.0,0.0,87,0.00,,CLR,-99.99,VWS V14.01,2013-08-17 05:00:00,
2013-08-17 01:05:00,55.5,51.7,30.29,North,0,1.0,0.0,87,0.00,,CLR,-99.99,VWS V14.01,2013-08-17 05:05:00,
2013-08-17 01:11:00,55.5,51.7,30.29,North,0,1.0,0.0,87,0.00,,CLR,-99.99,VWS V14.01,2013-08-17 05:11:00,
2013-08-17 01:17:00,55.2,51.4,30.29,North,0,1.0,0.0,87,0.00,,CLR,-99.99,VWS V14.01,2013-08-17 05:17:00,
2013-08-17 01:23:00,55.2,51.4,30.29,North,0,1.0,0.0,87,0.00,,CLR,-99.99,VWS V14.01,2013-08-17 05:23:00,
2013-08-17 01:29:00,55.0,51.2,30.30,North,0,1.0,0.0,87,0.00,,CLR,-99.99,VWS V14.01,2013-08-17 05:29:00,
2013-08-17 01:35:00,55.0,51.5,30.30,North,0,1.0,0.0,88,0.00,,CLR,-99.99,VWS V14.01,2013-08-17 05:35:00,
2013-08-17 01:40:00,55.0,51.8,30.30,North,0,1.0,0.0,89,0.00,,CLR,-99.99,VWS V14.01,2013-08-17 05:40:00,
2013-08-17 01:45:00,54.8,51.3,30.30,North,0,1.0,0.0,88,0.00,,CLR,-99.99,VWS V14.01,2013-08-17 05:45:00,
2013-08-17 01:50:00,54.6,51.1,30.30,North,0,1.0,0.0,88,0.00,,CLR,-99.99,VWS V14.01,2013-08-17 05:50:00,
2013-08-17 01:55:00,54.6,51.4,30.30,North,0,1.0,0.0,89,0.00,,CLR,-99.99,VWS V14.01,2013-08-17 05:55:00,
2013-08-17 02:00:00,54.6,51.4,30.30,North,0,1.0,0.0,89,0.00,,CLR,-99.99,VWS V14.01,2013-08-17 06:00:00,
2013-08-17 02:05:00,54.5,51.3,30.30,North,0,1.0,0.0,89,0.00,,CLR,-99.99,VWS V14.01,2013-08-17 06:05:00,
2013-08-17 02:10:00,54.5,51.3,30.30,North,0,1.0,0.0,89,0.00,,CLR,-99.99,VWS V14.01,2013-08-17 06:10:00,
2013-08-17 02:15:00,54.3,51.1,30.30,North,0,1.0,0.0,89,0.00,,CLR,-99.99,VWS V14.01,2013-08-17 06:15:00,
2013-08-17 02:20:00,54.3,51.1,30.30,North,0,1.0,0.0,89,0.00,,CLR,-99.99,VWS V14.01,2013-08-17 06:20:00,
2013-08-17 02:25:00,54.1,50.9,30.30,North,0,1.0,0.0,89,0.00,,CLR,-99.99,VWS V14.01,2013-08-17 06:25:00,
2013-08-17 02:30:00,53.9,50.7,30.30,North,0,1.0,0.0,89,0.00,,CLR,-99.99,VWS V14.01,2013-08-17 06:30:00,
2013-08-17 02:35:00,53.9,50.7,30.30,North,0,1.0,0.0,89,0.00,,CLR,-99.99,VWS V14.01,2013-08-17 06:35:00,
2013-08-17 02:40:00,53.7,50.5,30.30,North,0,1.0,0.0,89,0.00,,CLR,-99.99,VWS V14.01,2013-08-17 06:40:00,
2013-08-17 02:45:00,53.7,50.5,30.30,North,0,1.0,0.0,89,0.00,,CLR,-99.99,VWS V14.01,2013-08-17 06:45:00,
2013-08-17 02:50:00,53.6,50.4,30.30,North,0,1.0,0.0,89,0.00,,CLR,-99.99,VWS V14.01,2013-08-17 06:50:00,
2013-08-17 02:55:00,53.4,50.2,30.30,North,0,1.0,0.0,89,0.00,,CLR,-99.99,VWS V14.01,2013-08-17 06:55:00,
2013-08-17 03:00:00,53.4,50.2,30.30,North,0,1.0,0.0,89,0.00,,CLR,-99.99,VWS V14.01,2013-08-17 07:00:00,
2013-08-17 03:05:00,53.4,50.2,30.30,North,0,1.0,0.0,89,0.00,,CLR,-99.99,VWS V14.01,2013-08-17 07:05:00,
2013-08-17 03:10:00,53.4,50.2,30.30,North,0,1.0,0.0,89,0.00,,CLR,-99.99,VWS V14.01,2013-08-17 07:10:00,
2013-08-17 03:15:00,53.4,50.2,30.30,North,0,1.0,0.0,89,0.00,,CLR,-99.99,VWS V14.01,2013-08-17 07:15:00,
2013-08-17 03:20:00,53.4,50.2,30.30,North,0,1.0,0.0,89,0.00,,CLR,-99.99,VWS V14.01,2013-08-17 07:20:00,
2013-08-17 03:25:00,53.2,50.0,30.30,North,0,1.0,0.0,89,0.00,,CLR,-99.99,VWS V14.01,2013-08-17 07:25:00,
2013-08-17 03:30:00,53.0,49.8,30.30,North,0,1.0,0.0,89,0.00,,CLR,-99.99,VWS V14.01,2013-08-17 07:30:00,
2013-08-17 03:35:00,52.8,49.7,30.30,North,0,1.0,0.0,89,0.00,,CLR,-99.99,VWS V14.01,2013-08-17 07:35:00,
2013-08-17 03:40:00,52.8,49.7,30.30,North,0,1.0,0.0,89,0.00,,CLR,-99.99,VWS V14.01,2013-08-17 07:40:00,
2013-08-17 03:45:00,52.7,49.5,30.30,North,0,1.0,0.0,89,0.00,,CLR,-99.99,VWS V14.01,2013-08-17 07:45:00,
2013-08-17 03:50:00,52.8,50.0,30.31,North,0,1.0,0.0,90,0.00,,CLR,-99.99,VWS V14.01,2013-08-17 07:50:00,
2013-08-17 03:55:00,52.8,50.0,30.30,North,0,1.0,0.0,90,0.00,,CLR,-99.99,VWS V14.01,2013-08-17 07:55:00,
2013-08-17 04:00:00,52.7,49.8,30.30,North,0,1.0,0.0,90,0.00,,CLR,-99.99,VWS V14.01,2013-08-17 08:00:00,
2013-08-17 04:05:00,52.7,49.8,30.30,North,0,1.0,0.0,90,0.00,,CLR,-99.99,VWS V14.01,2013-08-17 08:05:00,
2013-08-17 04:10:00,52.5,49.4,30.31,North,0,1.0,0.0,89,0.00,,CLR,-99.99,VWS V14.01,2013-08-17 08:10:00,
2013-08-17 04:15:00,52.3,49.2,30.31,North,0,1.0,0.0,89,0.00,,CLR,-99.99,VWS V14.01,2013-08-17 08:15:00,
2013-08-17 04:20:00,52.1,49.0,30.32,North,0,1.0,0.0,89,0.00,,CLR,-99.99,VWS V14.01,2013-08-17 08:20:00,
2013-08-17 04:25:00,52.3,49.5,30.32,North,0,1.0,0.0,90,0.00,,CLR,-99.99,VWS V14.01,2013-08-17 08:25:00,
2013-08-17 04:30:00,52.3,49.5,30.32,North,0,1.0,0.0,90,0.00,,CLR,-99.99,VWS V14.01,2013-08-17 08:30:00,
2013-08-17 04:35:00,52.3,49.8,30.32,North,0,1.0,0.0,91,0.00,,CLR,-99.99,VWS V14.01,2013-08-17 08:35:00,
2013-08-17 04:40:00,52.3,49.5,30.31,North,0,1.0,0.0,90,0.00,,CLR,-99.99,VWS V14.01,2013-08-17 08:40:00,
2013-08-17 04:45:00,51.9,49.1,30.32,North,0,1.0,0.0,90,0.00,,CLR,-99.99,VWS V14.01,2013-08-17 08:45:00,
2013-08-17 04:50:00,51.8,49.0,30.32,North,0,1.0,0.0,90,0.00,,CLR,-99.99,VWS V14.01,2013-08-17 08:50:00,
2013-08-17 04:55:00,51.6,48.8,30.31,North,0,1.0,0.0,90,0.00,,CLR,-99.99,VWS V14.01,2013-08-17 08:55:00,
2013-08-17 05:00:00,51.6,48.8,30.32,North,0,1.0,0.0,90,0.00,,CLR,-99.99,VWS V14.01,2013-08-17 09:00:00,
2013-08-17 05:05:00,51.6,48.8,30.31,North,0,1.0,0.0,90,0.00,,CLR,-99.99,VWS V14.01,2013-08-17 09:05:00,
2013-08-17 05:10:00,51.6,48.8,30.32,North,0,1.0,0.0,90,0.00,,CLR,-99.99,VWS V14.01,2013-08-17 09:10:00,
2013-08-17 05:15:00,51.4,48.6,30.32,North,0,1.0,0.0,90,0.00,,CLR,-99.99,VWS V14.01,2013-08-17 09:15:00,
2013-08-17 05:20:00,51.4,48.6,30.32,North,0,1.0,0.0,90,0.00,,CLR,-99.99,VWS V14.01,2013-08-17 09:20:00,
2013-08-17 05:25:00,51.2,48.4,30.32,North,0,1.0,0.0,90,0.00,,CLR,-99.99,VWS V14.01,2013-08-17 09:25:00,
2013-08-17 05:30:00,51.0,48.2,30.32,North,0,1.0,0.0,90,0.00,,CLR,-99.99,VWS V14.01,2013-08-17 09:30:00,
2013-08-17 05:35:00,51.0,48.2,30.33,North,0,1.0,0.0,90,0.00,,CLR,-99.99,VWS V14.01,2013-08-17 09:35:00,
2013-08-17 05:40:00,51.0,48.2,30.33,North,0,1.0,0.0,90,0.00,,CLR,-99.99,VWS V14.01,2013-08-17 09:40:00,
2013-08-17 05:45:00,51.0,48.2,30.33,North,0,1.0,0.0,90,0.00,,CLR,-99.99,VWS V14.01,2013-08-17 09:45:00,
2013-08-17 05:50:00,50.9,48.1,30.33,North,0,1.0,0.0,90,0.00,,CLR,-99.99,VWS V14.01,2013-08-17 09:50:00,
2013-08-17 05:55:00,50.9,48.1,30.33,North,0,1.0,0.0,90,0.00,,CLR,-99.99,VWS V14.01,2013-08-17 09:55:00,
2013-08-17 06:00:00,50.7,47.9,30.33,North,0,1.0,0.0,90,0.00,,CLR,-99.99,VWS V14.01,2013-08-17 10:00:00,
2013-08-17 06:05:00,50.9,48.1,30.33,North,0,1.0,0.0,90,0.00,,CLR,-99.99,VWS V14.01,2013-08-17 10:05:00,
2013-08-17 06:10:00,50.7,47.9,30.33,North,0,1.0,0.0,90,0.00,,CLR,-99.99,VWS V14.01,2013-08-17 10:10:00,
2013-08-17 06:15:00,51.0,48.2,30.34,North,0,1.0,0.0,90,0.00,,CLR,-99.99,VWS V14.01,2013-08-17 10:15:00,
2013-08-17 06:20:00,50.9,48.1,30.34,North,0,1.0,0.0,90,0.00,,CLR,-99.99,VWS V14.01,2013-08-17 10:20:00,
2013-08-17 06:25:00,50.7,47.9,30.34,North,0,1.0,0.0,90,0.00,,CLR,-99.99,VWS V14.01,2013-08-17 10:25:00,
2013-08-17 06:30:00,50.7,47.9,30.34,North,0,1.0,0.0,90,0.00,,CLR,-99.99,VWS V14.01,2013-08-17 10:30:00,
2013-08-17 06:35:00,51.2,48.7,30.34,North,0,1.0,0.0,91,0.00,,CLR,-99.99,VWS V14.01,2013-08-17 10:35:00,
2013-08-17 06:40:00,51.4,48.9,30.35,North,0,1.0,0.0,91,0.00,,CLR,-99.99,VWS V14.01,2013-08-17 10:40:00,
2013-08-17 06:45:00,51.6,49.1,30.34,North,0,1.0,0.0,91,0.00,,CLR,-99.99,VWS V14.01,2013-08-17 10:45:00,
2013-08-17 06:50:00,51.6,49.1,30.34,North,0,1.0,0.0,91,0.00,,CLR,-99.99,VWS V14.01,2013-08-17 10:50:00,
2013-08-17 06:55:00,51.8,49.3,30.34,North,0,1.0,0.0,91,0.00,,CLR,-99.99,VWS V14.01,2013-08-17 10:55:00,
2013-08-17 07:01:00,52.1,49.6,30.34,North,0,1.0,0.0,91,0.00,,CLR,-99.99,VWS V14.01,2013-08-17 11:01:00,
2013-08-17 07:06:00,52.3,49.8,30.34,North,0,1.0,0.0,91,0.00,,CLR,-99.99,VWS V14.01,2013-08-17 11:06:00,
2013-08-17 07:12:00,52.8,50.5,30.34,North,0,1.0,0.0,92,0.00,,CLR,-99.99,VWS V14.01,2013-08-17 11:12:00,
2013-08-17 07:18:00,53.4,51.1,30.34,North,0,1.0,0.0,92,0.00,,CLR,-99.99,VWS V14.01,2013-08-17 11:18:00,
2013-08-17 07:24:00,54.1,51.5,30.34,North,0,1.0,0.0,91,0.00,,CLR,-99.99,VWS V14.01,2013-08-17 11:24:00,
2013-08-17 07:30:00,54.6,52.0,30.35,North,0,1.0,0.0,91,0.00,,CLR,-99.99,VWS V14.01,2013-08-17 11:30:00,
2013-08-17 07:35:00,55.2,52.6,30.35,North,0,1.0,0.0,91,0.00,,CLR,-99.99,VWS V14.01,2013-08-17 11:35:00,
2013-08-17 07:40:00,55.4,52.5,30.34,North,0,1.0,0.0,90,0.00,,CLR,-99.99,VWS V14.01,2013-08-17 11:40:00,
2013-08-17 07:45:00,55.7,53.1,30.34,North,0,1.0,0.0,91,0.00,,CLR,-99.99,VWS V14.01,2013-08-17 11:45:00,
2013-08-17 07:50:00,56.1,53.2,30.35,North,0,1.0,0.0,90,0.00,,CLR,-99.99,VWS V14.01,2013-08-17 11:50:00,
2013-08-17 07:55:00,56.1,53.2,30.35,North,0,1.0,0.0,90,0.00,,CLR,-99.99,VWS V14.01,2013-08-17 11:55:00,
2013-08-17 08:00:00,56.6,53.7,30.35,North,0,1.0,0.0,90,0.00,,CLR,-99.99,VWS V14.01,2013-08-17 12:00:00,
2013-08-17 08:05:00,56.8,53.6,30.36,North,0,1.0,0.0,89,0.00,,CLR,-99.99,VWS V14.01,2013-08-17 12:05:00,
2013-08-17 08:06:00,56.8,53.6,30.36,North,0,1.0,0.0,89,0.00,,CLR,-99.99,VWS V14.01,2013-08-17 12:06:00,
2013-08-17 08:12:00,57.3,54.1,30.36,North,0,1.0,0.0,89,0.00,,CLR,-99.99,VWS V14.01,2013-08-17 12:12:00,
2013-08-17 08:18:00,58.4,55.2,30.36,North,0,1.0,0.0,89,0.00,,CLR,-99.99,VWS V14.01,2013-08-17 12:18:00,
2013-08-17 08:24:00,58.8,55.3,30.36,North,0,1.0,0.0,88,0.00,,CLR,-99.99,VWS V14.01,2013-08-17 12:24:00,
2013-08-17 08:30:00,59.7,55.5,30.35,North,0,1.0,0.0,86,0.00,,CLR,-99.99,VWS V14.01,2013-08-17 12:30:00,
2013-08-17 08:35:00,59.9,55.7,30.36,North,0,1.0,0.0,86,0.00,,CLR,-99.99,VWS V14.01,2013-08-17 12:35:00,
2013-08-17 08:40:00,60.4,56.2,30.36,North,0,1.0,0.0,86,0.00,,CLR,-99.99,VWS V14.01,2013-08-17 12:40:00,
2013-08-17 08:45:00,60.9,56.0,30.36,North,0,1.0,0.0,84,0.00,,CLR,-99.99,VWS V14.01,2013-08-17 12:45:00,
2013-08-17 08:50:00,61.3,56.4,30.36,North,0,1.0,0.0,84,0.00,,CLR,-99.99,VWS V14.01,2013-08-17 12:50:00,
2013-08-17 08:55:00,61.3,56.1,30.36,North,0,1.0,0.0,83,0.00,,CLR,-99.99,VWS V14.01,2013-08-17 12:55:00,
2013-08-17 09:00:00,62.0,56.8,30.35,North,0,1.0,0.0,83,0.00,,CLR,-99.99,VWS V14.01,2013-08-17 13:00:00,
2013-08-17 09:06:00,63.5,58.2,30.35,North,0,1.0,0.0,83,0.00,,CLR,-99.99,VWS V14.01,2013-08-17 13:06:00,
2013-08-17 09:12:00,64.2,57.9,30.36,North,0,1.0,0.0,80,0.00,,CLR,-99.99,VWS V14.01,2013-08-17 13:12:00,
2013-08-17 09:17:00,65.8,59.1,30.35,North,0,1.0,0.0,79,0.00,,CLR,-99.99,VWS V14.01,2013-08-17 13:17:00,
2013-08-17 09:23:00,66.7,58.9,30.35,North,0,1.0,0.0,76,0.00,,CLR,-99.99,VWS V14.01,2013-08-17 13:23:00,
2013-08-17 09:29:00,68.0,59.4,30.35,North,0,1.0,0.0,74,0.00,,CLR,-99.99,VWS V14.01,2013-08-17 13:29:00,
2013-08-17 09:35:00,68.3,58.5,30.36,North,0,1.0,0.0,71,0.00,,CLR,-99.99,VWS V14.01,2013-08-17 13:35:00,
2013-08-17 09:40:00,68.7,58.5,30.36,North,0,1.0,0.0,70,0.00,,CLR,-99.99,VWS V14.01,2013-08-17 13:40:00,
2013-08-17 09:45:00,68.7,57.7,30.36,North,0,1.0,0.0,68,0.00,,CLR,-99.99,VWS V14.01,2013-08-17 13:45:00,
2013-08-17 09:50:00,68.7,56.9,30.36,North,0,1.0,0.0,66,0.00,,CLR,-99.99,VWS V14.01,2013-08-17 13:50:00,
2013-08-17 09:55:00,68.7,55.2,30.36,North,0,1.0,0.0,62,0.00,,CLR,-99.99,VWS V14.01,2013-08-17 13:55:00,
2013-08-17 10:00:00,69.6,56.9,30.36,North,0,1.0,0.0,64,0.00,,CLR,-99.99,VWS V14.01,2013-08-17 14:00:00,
2013-08-17 10:06:00,70.7,57.5,30.37,North,0,1.0,0.0,63,0.00,,CLR,-99.99,VWS V14.01,2013-08-17 14:06:00,
2013-08-17 10:12:00,69.6,54.7,30.36,North,0,1.0,0.0,59,0.00,,CLR,-99.99,VWS V14.01,2013-08-17 14:12:00,
2013-08-17 10:18:00,69.6,53.2,30.37,North,0,1.0,0.0,56,0.00,,CLR,-99.99,VWS V14.01,2013-08-17 14:18:00,
2013-08-17 10:24:00,69.8,54.4,30.37,North,0,1.0,0.0,58,0.00,,CLR,-99.99,VWS V14.01,2013-08-17 14:24:00,
2013-08-17 10:30:00,69.0,54.5,30.36,North,0,1.0,0.0,60,0.00,,CLR,-99.99,VWS V14.01,2013-08-17 14:30:00,
2013-08-17 10:35:00,69.4,54.0,30.36,North,0,1.0,0.0,58,0.00,,CLR,-99.99,VWS V14.01,2013-08-17 14:35:00,
2013-08-17 10:40:00,70.1,54.7,30.36,North,0,1.0,0.0,58,0.00,,CLR,-99.99,VWS V14.01,2013-08-17 14:40:00,
2013-08-17 10:45:00,69.4,53.5,30.36,North,0,1.0,0.0,57,0.00,,CLR,-99.99,VWS V14.01,2013-08-17 14:45:00,
2013-08-17 10:51:00,70.1,53.7,30.36,North,0,1.0,0.0,56,0.00,,CLR,-99.99,VWS V14.01,2013-08-17 14:51:00,
2013-08-17 10:57:00,70.3,54.8,30.35,North,0,1.0,0.0,58,0.00,,CLR,-99.99,VWS V14.01,2013-08-17 14:57:00,
2013-08-17 11:03:00,70.5,55.0,30.36,North,0,1.0,0.0,58,0.00,,CLR,-99.99,VWS V14.01,2013-08-17 15:03:00,
2013-08-17 11:09:00,69.9,53.0,30.36,North,0,1.0,0.0,55,0.00,,CLR,-99.99,VWS V14.01,2013-08-17 15:09:00,
2013-08-17 11:15:00,69.9,54.0,30.36,North,0,1.0,0.0,57,0.00,,CLR,-99.99,VWS V14.01,2013-08-17 15:15:00,
2013-08-17 11:20:00,69.0,53.6,30.35,North,0,1.0,0.0,58,0.00,,CLR,-99.99,VWS V14.01,2013-08-17 15:20:00,
2013-08-17 11:25:00,69.9,54.0,30.35,North,0,1.0,0.0,57,0.00,,CLR,-99.99,VWS V14.01,2013-08-17 15:25:00,
2013-08-17 11:30:00,69.0,54.1,30.35,North,0,1.0,0.0,59,0.00,,CLR,-99.99,VWS V14.01,2013-08-17 15:30:00,
2013-08-17 11:35:00,69.0,55.0,30.35,North,0,1.0,0.0,61,0.00,,CLR,-99.99,VWS V14.01,2013-08-17 15:35:00,
2013-08-17 11:40:00,70.5,56.0,30.35,North,0,1.0,0.0,60,0.00,,CLR,-99.99,VWS V14.01,2013-08-17 15:40:00,
2013-08-17 11:45:00,71.0,55.5,30.35,North,0,1.0,0.0,58,0.00,,CLR,-99.99,VWS V14.01,2013-08-17 15:45:00,
2013-08-17 11:50:00,70.3,55.3,30.35,North,0,1.0,0.0,59,0.00,,CLR,-99.99,VWS V14.01,2013-08-17 15:50:00,
2013-08-17 11:55:00,69.4,54.9,30.35,North,0,1.0,0.0,60,0.00,,CLR,-99.99,VWS V14.01,2013-08-17 15:55:00,
2013-08-17 12:00:00,71.0,55.5,30.35,North,0,1.0,0.0,58,0.00,,CLR,-99.99,VWS V14.01,2013-08-17 16:00:00,
2013-08-17 12:05:00,69.2,53.3,30.35,North,0,1.0,0.0,57,0.00,,CLR,-99.99,VWS V14.01,2013-08-17 16:05:00,
2013-08-17 12:10:00,69.2,53.8,30.35,North,0,1.0,0.0,58,0.00,,CLR,-99.99,VWS V14.01,2013-08-17 16:10:00,
2013-08-17 12:15:00,70.7,54.2,30.35,North,0,1.0,0.0,56,0.00,,CLR,-99.99,VWS V14.01,2013-08-17 16:15:00,
2013-08-17 12:20:00,71.4,55.9,30.35,North,0,1.0,0.0,58,0.00,,CLR,-99.99,VWS V14.01,2013-08-17 16:20:00,
2013-08-17 12:25:00,70.8,54.8,30.35,North,0,1.0,0.0,57,0.00,,CLR,-99.99,VWS V14.01,2013-08-17 16:25:00,
2013-08-17 12:30:00,69.9,53.5,30.35,North,0,1.0,0.0,56,0.00,,CLR,-99.99,VWS V14.01,2013-08-17 16:30:00,
2013-08-17 12:35:00,69.9,53.5,30.35,North,0,1.0,0.0,56,0.00,,CLR,-99.99,VWS V14.01,2013-08-17 16:35:00,
2013-08-17 12:40:00,71.2,54.2,30.35,North,0,1.0,0.0,55,0.00,,CLR,-99.99,VWS V14.01,2013-08-17 16:40:00,
2013-08-17 12:45:00,71.4,53.9,30.35,North,0,1.0,0.0,54,0.00,,CLR,-99.99,VWS V14.01,2013-08-17 16:45:00,
2013-08-17 12:50:00,70.3,52.4,30.35,North,0,1.0,0.0,53,0.00,,CLR,-99.99,VWS V14.01,2013-08-17 16:50:00,
2013-08-17 12:55:00,69.8,52.9,30.35,North,0,1.0,0.0,55,0.00,,CLR,-99.99,VWS V14.01,2013-08-17 16:55:00,
2013-08-17 13:00:00,72.1,55.1,30.35,North,0,1.0,0.0,55,0.00,,CLR,-99.99,VWS V14.01,2013-08-17 17:00:00,
2013-08-17 13:06:00,72.3,54.2,30.35,North,0,1.0,0.0,53,0.00,,CLR,-99.99,VWS V14.01,2013-08-17 17:06:00,
2013-08-17 13:12:00,72.6,55.0,30.35,North,0,1.0,0.0,54,0.00,,CLR,-99.99,VWS V14.01,2013-08-17 17:12:00,
2013-08-17 13:17:00,71.9,53.3,30.35,North,0,1.0,0.0,52,0.00,,CLR,-99.99,VWS V14.01,2013-08-17 17:17:00,
2013-08-17 13:23:00,70.8,52.8,30.35,North,0,1.0,0.0,53,0.00,,CLR,-99.99,VWS V14.01,2013-08-17 17:23:00,
2013-08-17 13:29:00,71.6,53.6,30.35,North,0,1.0,0.0,53,0.00,,CLR,-99.99,VWS V14.01,2013-08-17 17:29:00,
2013-08-17 13:35:00,73.0,53.3,30.35,North,0,1.0,0.0,50,0.00,,CLR,-99.99,VWS V14.01,2013-08-17 17:35:00,
2013-08-17 13:40:00,73.2,52.9,30.35,North,0,1.0,0.0,49,0.00,,CLR,-99.99,VWS V14.01,2013-08-17 17:40:00,
2013-08-17 13:45:00,71.7,53.2,30.35,North,0,1.0,0.0,52,0.00,,CLR,-99.99,VWS V14.01,2013-08-17 17:45:00,
2013-08-17 13:50:00,71.4,53.4,30.35,North,0,1.0,0.0,53,0.00,,CLR,-99.99,VWS V14.01,2013-08-17 17:50:00,
2013-08-17 13:55:00,72.1,54.0,30.35,North,0,1.0,0.0,53,0.00,,CLR,-99.99,VWS V14.01,2013-08-17 17:55:00,
2013-08-17 14:00:00,73.2,54.5,30.35,North,0,1.0,0.0,52,0.00,,CLR,-99.99,VWS V14.01,2013-08-17 18:00:00,
2013-08-17 14:06:00,72.5,52.3,30.35,North,0,1.0,0.0,49,0.00,,CLR,-99.99,VWS V14.01,2013-08-17 18:06:00,
2013-08-17 14:12:00,74.1,56.4,30.35,North,0,1.0,0.0,54,0.00,,CLR,-99.99,VWS V14.01,2013-08-17 18:12:00,
2013-08-17 14:18:00,75.7,55.2,30.35,North,0,1.0,0.0,49,0.00,,CLR,-99.99,VWS V14.01,2013-08-17 18:18:00,
2013-08-17 14:24:00,76.6,55.5,30.35,North,0,1.0,0.0,48,0.00,,CLR,-99.99,VWS V14.01,2013-08-17 18:24:00,
2013-08-17 14:30:00,74.4,54.0,30.35,North,0,1.0,0.0,49,0.00,,CLR,-99.99,VWS V14.01,2013-08-17 18:30:00,
2013-08-17 14:35:00,73.5,52.6,30.34,North,0,1.0,0.0,48,0.00,,CLR,-99.99,VWS V14.01,2013-08-17 18:35:00,
2013-08-17 14:40:00,72.8,52.5,30.34,North,0,1.0,0.0,49,0.00,,CLR,-99.99,VWS V14.01,2013-08-17 18:40:00,
2013-08-17 14:45:00,73.0,52.7,30.34,North,0,1.0,0.0,49,0.00,,CLR,-99.99,VWS V14.01,2013-08-17 18:45:00,
2013-08-17 14:50:00,73.7,54.5,30.34,North,0,1.0,0.0,51,0.00,,CLR,-99.99,VWS V14.01,2013-08-17 18:50:00,
2013-08-17 14:55:00,74.8,54.9,30.34,North,0,1.0,0.0,50,0.00,,CLR,-99.99,VWS V14.01,2013-08-17 18:55:00,
2013-08-17 15:00:00,75.3,53.7,30.34,North,0,1.0,0.0,47,0.00,,CLR,-99.99,VWS V14.01,2013-08-17 19:00:00,
2013-08-17 15:05:00,75.7,54.6,30.34,North,0,1.0,0.0,48,0.00,,CLR,-99.99,VWS V14.01,2013-08-17 19:05:00,
2013-08-17 15:10:00,76.2,55.1,30.34,North,0,1.0,0.0,48,0.00,,CLR,-99.99,VWS V14.01,2013-08-17 19:10:00,
2013-08-17 15:15:00,74.3,52.2,30.34,North,0,1.0,0.0,46,0.00,,CLR,-99.99,VWS V14.01,2013-08-17 19:15:00,
2013-08-17 15:20:00,74.4,52.9,30.34,North,0,1.0,0.0,47,0.00,,CLR,-99.99,VWS V14.01,2013-08-17 19:20:00,
2013-08-17 15:25:00,74.8,52.7,30.34,North,0,1.0,0.0,46,0.00,,CLR,-99.99,VWS V14.01,2013-08-17 19:25:00,
2013-08-17 15:30:00,74.8,53.2,30.34,North,0,1.0,0.0,47,0.00,,CLR,-99.99,VWS V14.01,2013-08-17 19:30:00,
2013-08-17 15:35:00,75.0,52.8,30.35,North,0,1.0,0.0,46,0.00,,CLR,-99.99,VWS V14.01,2013-08-17 19:35:00,
2013-08-17 15:40:00,74.4,52.3,30.34,North,0,1.0,0.0,46,0.00,,CLR,-99.99,VWS V14.01,2013-08-17 19:40:00,
2013-08-17 15:45:00,73.7,51.7,30.34,North,0,1.0,0.0,46,0.00,,CLR,-99.99,VWS V14.01,2013-08-17 19:45:00,
2013-08-17 15:50:00,72.8,52.0,30.34,North,0,1.0,0.0,48,0.00,,CLR,-99.99,VWS V14.01,2013-08-17 19:50:00,
2013-08-17 15:55:00,72.6,51.2,30.34,North,0,1.0,0.0,47,0.00,,CLR,-99.99,VWS V14.01,2013-08-17 19:55:00,
2013-08-17 16:00:00,72.1,50.8,30.34,North,0,1.0,0.0,47,0.00,,CLR,-99.99,VWS V14.01,2013-08-17 20:00:00,
2013-08-17 16:05:00,71.7,51.0,30.34,North,0,1.0,0.0,48,0.00,,CLR,-99.99,VWS V14.01,2013-08-17 20:05:00,
2013-08-17 16:10:00,71.9,51.7,30.34,North,0,1.0,0.0,49,0.00,,CLR,-99.99,VWS V14.01,2013-08-17 20:10:00,
2013-08-17 16:15:00,71.7,51.0,30.34,North,0,1.0,0.0,48,0.00,,CLR,-99.99,VWS V14.01,2013-08-17 20:15:00,
2013-08-17 16:20:00,71.7,51.0,30.34,North,0,1.0,0.0,48,0.00,,CLR,-99.99,VWS V14.01,2013-08-17 20:20:00,
2013-08-17 16:25:00,71.7,50.4,30.34,North,0,1.0,0.0,47,0.00,,CLR,-99.99,VWS V14.01,2013-08-17 20:25:00,
2013-08-17 16:30:00,72.1,51.9,30.33,North,0,1.0,0.0,49,0.00,,CLR,-99.99,VWS V14.01,2013-08-17 20:30:00,
2013-08-17 16:35:00,71.4,50.1,30.34,North,0,1.0,0.0,47,0.00,,CLR,-99.99,VWS V14.01,2013-08-17 20:35:00,
2013-08-17 16:40:00,71.4,51.3,30.33,North,0,1.0,0.0,49,0.00,,CLR,-99.99,VWS V14.01,2013-08-17 20:40:00,
2013-08-17 16:45:00,71.4,51.3,30.33,North,0,1.0,0.0,49,0.00,,CLR,-99.99,VWS V14.01,2013-08-17 20:45:00,
2013-08-17 16:50:00,71.4,51.3,30.33,North,0,1.0,0.0,49,0.00,,CLR,-99.99,VWS V14.01,2013-08-17 20:50:00,
2013-08-17 16:55:00,71.4,51.8,30.33,North,0,1.0,0.0,50,0.00,,CLR,-99.99,VWS V14.01,2013-08-17 20:55:00,
2013-08-17 17:00:00,71.0,51.5,30.33,North,0,1.0,0.0,50,0.00,,CLR,-99.99,VWS V14.01,2013-08-17 21:00:00,
2013-08-17 17:06:00,71.2,51.6,30.33,North,0,1.0,0.0,50,0.00,,CLR,-99.99,VWS V14.01,2013-08-17 21:06:00,
2013-08-17 17:11:00,70.3,50.8,30.33,North,0,1.0,0.0,50,0.00,,CLR,-99.99,VWS V14.01,2013-08-17 21:11:00,
2013-08-17 17:17:00,70.3,51.3,30.33,North,0,1.0,0.0,51,0.00,,CLR,-99.99,VWS V14.01,2013-08-17 21:17:00,
2013-08-17 17:23:00,70.3,51.3,30.33,North,0,1.0,0.0,51,0.00,,CLR,-99.99,VWS V14.01,2013-08-17 21:23:00,
2013-08-17 17:29:00,69.9,51.5,30.33,North,0,1.0,0.0,52,0.00,,CLR,-99.99,VWS V14.01,2013-08-17 21:29:00,
2013-08-17 17:35:00,69.4,50.5,30.33,North,0,1.0,0.0,51,0.00,,CLR,-99.99,VWS V14.01,2013-08-17 21:35:00,
2013-08-17 17:40:00,69.4,51.0,30.33,North,0,1.0,0.0,52,0.00,,CLR,-99.99,VWS V14.01,2013-08-17 21:40:00,
2013-08-17 17:45:00,69.0,50.1,30.32,North,0,1.0,0.0,51,0.00,,CLR,-99.99,VWS V14.01,2013-08-17 21:45:00,
2013-08-17 17:50:00,69.0,50.7,30.33,North,0,1.0,0.0,52,0.00,,CLR,-99.99,VWS V14.01,2013-08-17 21:50:00,
2013-08-17 17:55:00,68.9,50.6,30.33,North,0,1.0,0.0,52,0.00,,CLR,-99.99,VWS V14.01,2013-08-17 21:55:00,
2013-08-17 18:00:00,68.7,50.4,30.33,North,0,1.0,0.0,52,0.00,,CLR,-99.99,VWS V14.01,2013-08-17 22:00:00,
2013-08-17 18:06:00,68.5,50.2,30.33,North,0,1.0,0.0,52,0.00,,CLR,-99.99,VWS V14.01,2013-08-17 22:06:00,
2013-08-17 18:12:00,68.1,49.8,30.33,North,0,1.0,0.0,52,0.00,,CLR,-99.99,VWS V14.01,2013-08-17 22:12:00,
2013-08-17 18:18:00,67.8,49.5,30.33,North,0,1.0,0.0,52,0.00,,CLR,-99.99,VWS V14.01,2013-08-17 22:18:00,
2013-08-17 18:24:00,67.8,49.5,30.33,North,0,1.0,0.0,52,0.00,,CLR,-99.99,VWS V14.01,2013-08-17 22:24:00,
2013-08-17 18:29:00,67.6,50.4,30.33,North,0,1.0,0.0,54,0.00,,CLR,-99.99,VWS V14.01,2013-08-17 22:29:00,
2013-08-17 18:35:00,67.2,50.0,30.33,North,0,1.0,0.0,54,0.00,,CLR,-99.99,VWS V14.01,2013-08-17 22:35:00,
2013-08-17 18:40:00,67.1,49.9,30.33,North,0,1.0,0.0,54,0.00,,CLR,-99.99,VWS V14.01,2013-08-17 22:40:00,
2013-08-17 18:45:00,66.9,49.2,30.33,North,0,1.0,0.0,53,0.00,,CLR,-99.99,VWS V14.01,2013-08-17 22:45:00,
2013-08-17 18:50:00,66.7,49.5,30.33,North,0,1.0,0.0,54,0.00,,CLR,-99.99,VWS V14.01,2013-08-17 22:50:00,
2013-08-17 18:55:00,66.5,49.4,30.33,North,0,1.0,0.0,54,0.00,,CLR,-99.99,VWS V14.01,2013-08-17 22:55:00,
2013-08-17 19:00:00,66.2,50.5,30.33,North,0,1.0,0.0,57,0.00,,CLR,-99.99,VWS V14.01,2013-08-17 23:00:00,
2013-08-17 19:06:00,66.0,49.9,30.33,North,0,1.0,0.0,56,0.00,,CLR,-99.99,VWS V14.01,2013-08-17 23:06:00,
2013-08-17 19:12:00,65.6,49.5,30.33,North,0,1.0,0.0,56,0.00,,CLR,-99.99,VWS V14.01,2013-08-17 23:12:00,
2013-08-17 19:18:00,65.1,49.5,30.33,North,0,1.0,0.0,57,0.00,,CLR,-99.99,VWS V14.01,2013-08-17 23:18:00,
2013-08-17 19:24:00,64.9,49.3,30.33,North,0,1.0,0.0,57,0.00,,CLR,-99.99,VWS V14.01,2013-08-17 23:24:00,
2013-08-17 19:30:00,64.7,49.1,30.33,North,0,1.0,0.0,57,0.00,,CLR,-99.99,VWS V14.01,2013-08-17 23:30:00,
2013-08-17 19:35:00,64.2,49.1,30.33,North,0,1.0,0.0,58,0.00,,CLR,-99.99,VWS V14.01,2013-08-17 23:35:00,
2013-08-17 19:40:00,63.5,50.3,30.33,North,0,1.0,0.0,62,0.00,,CLR,-99.99,VWS V14.01,2013-08-17 23:40:00,
2013-08-17 19:45:00,63.1,50.7,30.33,North,0,1.0,0.0,64,0.00,,CLR,-99.99,VWS V14.01,2013-08-17 23:45:00,
2013-08-17 19:50:00,62.2,50.3,30.33,North,0,1.0,0.0,65,0.00,,CLR,-99.99,VWS V14.01,2013-08-17 23:50:00,
2013-08-17 19:55:00,61.7,50.6,30.33,North,0,1.0,0.0,67,0.00,,CLR,-99.99,VWS V14.01,2013-08-17 23:55:00,
2013-08-17 20:00:00,61.1,50.9,30.33,North,0,1.0,0.0,69,0.00,,CLR,-99.99,VWS V14.01,2013-08-18 00:00:00,
2013-08-17 20:05:00,60.6,50.4,30.33,North,0,1.0,0.0,69,0.00,,CLR,-99.99,VWS V14.01,2013-08-18 00:05:00,
2013-08-17 20:11:00,59.7,50.3,30.33,North,0,1.0,0.0,71,0.00,,CLR,-99.99,VWS V14.01,2013-08-18 00:11:00,
2013-08-17 20:17:00,59.3,49.9,30.33,North,0,1.0,0.0,71,0.00,,CLR,-99.99,VWS V14.01,2013-08-18 00:17:00,
2013-08-17 20:23:00,58.8,49.4,30.33,North,0,1.0,0.0,71,0.00,,CLR,-99.99,VWS V14.01,2013-08-18 00:23:00,
2013-08-17 20:29:00,58.4,49.8,30.34,North,0,1.0,0.0,73,0.00,,CLR,-99.99,VWS V14.01,2013-08-18 00:29:00,
2013-08-17 20:35:00,58.1,49.9,30.34,North,0,1.0,0.0,74,0.00,,CLR,-99.99,VWS V14.01,2013-08-18 00:35:00,
2013-08-17 20:40:00,57.9,50.0,30.34,North,0,1.0,0.0,75,0.00,,CLR,-99.99,VWS V14.01,2013-08-18 00:40:00,
2013-08-17 20:45:00,57.7,50.2,30.34,North,0,1.0,0.0,76,0.00,,CLR,-99.99,VWS V14.01,2013-08-18 00:45:00,
2013-08-17 20:50:00,57.7,50.2,30.34,North,0,1.0,0.0,76,0.00,,CLR,-99.99,VWS V14.01,2013-08-18 00:50:00,
2013-08-17 20:55:00,57.3,49.8,30.34,North,0,1.0,0.0,76,0.00,,CLR,-99.99,VWS V14.01,2013-08-18 00:55:00,
2013-08-17 21:00:00,57.0,49.9,30.34,North,0,1.0,0.0,77,0.00,,CLR,-99.99,VWS V14.01,2013-08-18 01:00:00,
2013-08-17 21:05:00,56.4,49.3,30.34,North,0,1.0,0.0,77,0.00,,CLR,-99.99,VWS V14.01,2013-08-18 01:05:00,
2013-08-17 21:11:00,56.1,49.0,30.34,North,0,1.0,0.0,77,0.00,,CLR,-99.99,VWS V14.01,2013-08-18 01:11:00,
2013-08-17 21:17:00,55.7,48.6,30.34,North,0,1.0,0.0,77,0.00,,CLR,-99.99,VWS V14.01,2013-08-18 01:17:00,
2013-08-17 21:23:00,55.4,49.0,30.34,North,0,1.0,0.0,79,0.00,,CLR,-99.99,VWS V14.01,2013-08-18 01:23:00,
2013-08-17 21:29:00,55.2,49.2,30.35,North,0,1.0,0.0,80,0.00,,CLR,-99.99,VWS V14.01,2013-08-18 01:29:00,
2013-08-17 21:35:00,55.2,48.8,30.35,North,0,1.0,0.0,79,0.00,,CLR,-99.99,VWS V14.01,2013-08-18 01:35:00,
2013-08-17 21:40:00,54.8,48.8,30.35,North,0,1.0,0.0,80,0.00,,CLR,-99.99,VWS V14.01,2013-08-18 01:40:00,
2013-08-17 21:45:00,54.6,48.2,30.35,North,0,1.0,0.0,79,0.00,,CLR,-99.99,VWS V14.01,2013-08-18 01:45:00,
2013-08-17 21:50:00,54.5,48.1,30.35,North,0,1.0,0.0,79,0.00,,CLR,-99.99,VWS V14.01,2013-08-18 01:50:00,
2013-08-17 21:55:00,54.3,48.3,30.35,North,0,1.0,0.0,80,0.00,,CLR,-99.99,VWS V14.01,2013-08-18 01:55:00,
2013-08-17 22:00:00,53.9,47.9,30.35,North,0,1.0,0.0,80,0.00,,CLR,-99.99,VWS V14.01,2013-08-18 02:00:00,
2013-08-17 22:06:00,53.7,47.7,30.35,North,0,1.0,0.0,80,0.00,,CLR,-99.99,VWS V14.01,2013-08-18 02:06:00,
2013-08-17 22:12:00,53.7,47.7,30.35,North,0,1.0,0.0,80,0.00,,CLR,-99.99,VWS V14.01,2013-08-18 02:12:00,
2013-08-17 22:17:00,53.4,47.7,30.34,North,0,1.0,0.0,81,0.00,,CLR,-99.99,VWS V14.01,2013-08-18 02:17:00,
2013-08-17 22:23:00,53.4,47.7,30.34,North,0,1.0,0.0,81,0.00,,CLR,-99.99,VWS V14.01,2013-08-18 02:23:00,
2013-08-17 22:29:00,53.2,47.5,30.35,North,0,1.0,0.0,81,0.00,,CLR,-99.99,VWS V14.01,2013-08-18 02:29:00,
2013-08-17 22:34:00,53.0,47.7,30.35,North,0,1.0,0.0,82,0.00,,CLR,-99.99,VWS V14.01,2013-08-18 02:34:00,
2013-08-17 22:39:00,52.8,47.5,30.35,North,0,1.0,0.0,82,0.00,,CLR,-99.99,VWS V14.01,2013-08-18 02:39:00,
2013-08-17 22:44:00,52.7,47.4,30.34,North,0,1.0,0.0,82,0.00,,CLR,-99.99,VWS V14.01,2013-08-18 02:44:00,
2013-08-17 22:49:00,52.5,47.2,30.34,North,0,1.0,0.0,82,0.00,,CLR,-99.99,VWS V14.01,2013-08-18 02:49:00,
2013-08-17 22:54:00,52.3,47.3,30.34,North,0,1.0,0.0,83,0.00,,CLR,-99.99,VWS V14.01,2013-08-18 02:54:00,
2013-08-17 22:59:00,52.3,47.3,30.34,North,0,1.0,0.0,83,0.00,,CLR,-99.99,VWS V14.01,2013-08-18 02:59:00,
2013-08-17 23:05:00,52.3,47.3,30.34,North,0,1.0,0.0,83,0.00,,CLR,-99.99,VWS V14.01,2013-08-18 03:05:00,
2013-08-17 23:11:00,52.1,47.1,30.34,North,0,1.0,0.0,83,0.00,,CLR,-99.99,VWS V14.01,2013-08-18 03:11:00,
2013-08-17 23:17:00,52.1,47.1,30.34,North,0,1.0,0.0,83,0.00,,CLR,-99.99,VWS V14.01,2013-08-18 03:17:00,
2013-08-17 23:23:00,51.9,46.9,30.33,North,0,1.0,0.0,83,0.00,,CLR,-99.99,VWS V14.01,2013-08-18 03:23:00,
2013-08-17 23:29:00,51.8,46.8,30.34,North,0,1.0,0.0,83,0.00,,CLR,-99.99,VWS V14.01,2013-08-18 03:29:00,
2013-08-17 23:34:00,51.6,46.6,30.34,North,0,1.0,0.0,83,0.00,,CLR,-99.99,VWS V14.01,2013-08-18 03:34:00,
2013-08-17 23:39:00,51.6,46.9,30.34,North,0,1.0,0.0,84,0.00,,CLR,-99.99,VWS V14.01,2013-08-18 03:39:00,
2013-08-17 23:44:00,51.6,46.9,30.34,North,0,1.0,0.0,84,0.00,,CLR,-99.99,VWS V14.01,2013-08-18 03:44:00,
2013-08-17 23:49:00,51.4,46.7,30.34,North,0,1.0,0.0,84,0.00,,CLR,-99.99,VWS V14.01,2013-08-18 03:49:00,
2013-08-17 23:54:00,51.4,47.0,30.34,North,0,1.0,0.0,85,0.00,,CLR,-99.99,VWS V14.01,2013-08-18 03:54:00,
2013-08-17 23:59:00,51.4,47.0,30.34,North,0,1.0,0.0,85,0.00,,CLR,-99.99,VWS V14.01,2013-08-18 03:59:00,